Location: Caltech
(34.1382°N, 118.1253°W)
Time: 09:58:53
(UTC-07:00)

Iridium 12 - Visible Passes

Search period start: 28 June 2016 00:00
Search period end: 08 July 2016 00:00
Orbit: 776 x 779 km, 86.4° (Epoch: 27 June)

Date Brightness Start Highest point End Pass type
(mag) Time Alt. Az. Time Alt. Az. Time Alt. Az.
28 Jun 7.4 02:25:46 10° NNE 02:29:55 23° E 02:31:55 19° ESE visible
28 Jun 6.4 04:06:01 10° NNW 04:10:35 31° W 04:12:22 25° WSW visible
29 Jun 8.1 01:54:08 10° NE 01:56:06 12° ENE 01:58:03 10° E visible
29 Jun 5.5 03:32:03 10° N 03:37:12 62° W 03:38:35 45° SW visible
30 Jun 5.7 02:58:31 10° N 03:03:43 68° E 03:04:49 52° SE visible
30 Jun 7.5 04:42:38 10° WNW 04:43:43 11° WNW 04:44:49 10° W visible
01 Jul 6.7 02:25:22 10° NNE 02:30:07 34° E 02:31:05 32° ESE visible
01 Jul 6.9 04:06:40 10° NW 04:10:32 21° W 04:11:32 20° W visible
02 Jul 7.6 01:52:50 10° NE 01:56:22 18° E 01:57:21 17° E visible
02 Jul 6.0 03:32:21 10° NNW 03:37:13 41° W 03:37:48 39° WSW visible
03 Jul 5.3 02:58:34 10° N 03:03:48 81° W 03:04:05 77° SW visible
04 Jul 6.0 02:25:10 10° N 02:30:16 52° E 02:30:22 52° E visible
04 Jul 7.3 04:07:44 10° NW 04:10:26 14° W 04:10:49 14° W visible
05 Jul 7.1 01:52:13 10° NNE 01:56:37 27° E 01:56:41 27° E visible
05 Jul 6.6 03:32:50 10° NNW 03:37:08 28° W 03:37:08 28° W visible
06 Jul 7.9 01:20:10 10° NE 01:22:49 14° ENE 01:23:00 14° E visible
06 Jul 5.8 02:58:46 10° NNW 03:03:27 52° WNW 03:03:27 52° WNW visible
07 Jul 5.7 02:25:09 10° N 02:29:47 68° NNE 02:29:47 68° NNE visible
